NOAA NWS Hourly Roundups by Site

Regional Weather Roundup for San Diego, CA

To Select Another Site Choose from List

Select Site:  

000
ASUS46 KSGX 260410
RWRSGX

SAN DIEGO HOURLY WEATHER ROUNDUP
NATIONAL WEATHER SERVICE SAN DIEGO CA
800 PM PST SUN FEB 25 2024

NOTE: "FAIR" INDICATES FEW OR NO CLOUDS BELOW 12,000 FEET WITH NO
SIGNIFICANT WEATHER AND/OR OBSTRUCTIONS TO VISIBILITY.

CAZ042-043-060-061-PZZ750-775-260500-

GREATER SAN DIEGO AREA

CITY           SKY/WX    TMP DP  RH WIND       PRES   REMARKS
SAN DIEGO AP   CLOUDY    60  56  86 W3        30.07R
BROWN FIELD    CLOUDY    57  53  86 VRB3      30.04R
MIRAMAR MCAS   CLOUDY    54  54 100 W6        30.05R
MONTGOMERY FLD CLOUDY    58  54  86 W7        30.05R
LEMON GROVE      N/A     58  54  87 W2        30.02R

$$

NORTH SAN DIEGO COUNTY

CITY           SKY/WX    TMP DP  RH WIND       PRES   REMARKS
CAMP PENDLETON CLOUDY    58  52  80 CALM      30.05R
OCEANSIDE AP   CLOUDY    57  54  89 W6        30.04R
OCEANSIDE HBR    N/A     58  55  88 SW3       30.11R
VISTA            N/A     56  53  89 CALM      30.03R
CARLSBAD       CLOUDY    57  53  86 W5        30.05R
ENCINITAS        N/A     57  55  93 CALM        N/A
LA JOLLA SCRIP   N/A     58  50  74 CALM      30.06R
FALLBROOK      CLOUDY    54  52  94 SW7       30.05R
ESCONDIDO        N/A     62  53  72 CALM      30.03R
SAN MARCOS       N/A     57  53  86 NW2       30.03R
RANCHO BERNARD   N/A     57  53  86 CALM      30.03R
POWAY            N/A     58  54  85 W2        30.06R

$$

EAST SAN DIEGO COUNTY

CITY           SKY/WX    TMP DP  RH WIND       PRES   REMARKS
RAMONA         CLOUDY    55  48  77 NE8       30.04S
SANTEE           N/A     60  53  77 CALM      30.00R
LA MESA          N/A     58  53  84 CALM      29.98R
EL CAJON         N/A     61  53  74 CALM      29.92R
ALPINE           N/A     57  50  78 CALM      30.23R
DESCANSO N       N/A     49  38  64 N5        30.09R

$$

ORANGE COUNTY AND THE LOS ANGELES BASIN

CITY           SKY/WX    TMP DP  RH WIND       PRES   REMARKS
JOHN WAYNE AP  MOCLDY    59  52  77 S5        30.05S
LAGUNA BEACH     N/A     57  55  92 CALM      30.04S
LAKE FOREST FR   N/A     56  49  77 CALM      29.91S
SANTA ANA        N/A     58  53  83 CALM      30.03S
HUNTINGTON BCH   N/A     58  56  92 CALM      30.05R
LOS ALAMITOS   MOCLDY    57  52  83 CALM      30.02R
FULLERTON      MOCLDY    59  54  83 CALM      30.04R
LONG BEACH     MOCLDY    60  53  77 NW3       30.05R
L.A. AP        MOCLDY    57  53  86 W12       30.06R
L.A. DOWNTOWN  MOCLDY    58  53  84 CALM      30.05S

$$

THE INLAND EMPIRE

CITY           SKY/WX    TMP DP  RH WIND       PRES   REMARKS
CORONA         MOCLDY    58  48  69 W5        30.04R
UPLAND AP      FAIR      57  50  77 W7        30.04S
CHINO          MOCLDY    56  50  80 W6        30.05R
ONTARIO        MOCLDY    58  48  69 W6        30.04R
SAN BERNARDINO CLEAR     59  43  55 CALM      30.04R
RIVERSIDE AP   MOCLDY    57  51  80 W7        30.04R
MORENO VALLEY    N/A     59  50  72 E3        28.28R
MARCH ARB      MOCLDY    55  47  77 CALM      30.04R
HORSETHIEF CYN   N/A     56  43  61 CALM      30.02R
LAKE ELSINORE    N/A     59  51  73 CALM      29.97R
HEMET AP       FAIR      54  47  76 N3        30.04S
FRENCH VALLEY  CLOUDY    57  45  62 CALM      30.04R
TEMECULA         N/A     59  48  65 CALM      30.02S

$$

SAN BERNARDINO AND RIVERSIDE COUNTY MOUNTAINS

CITY           SKY/WX    TMP DP  RH WIND       PRES   REMARKS
BIG BEAR AP    MOCLDY    37  12  35 W5        30.16S WCI  34
BIG BEAR LAKE    N/A     40  15  37 SW3       30.10R
WRIGHTWOOD       N/A     46  13  26 CALM      29.92R
ANGELUS OAKS     N/A     40  26  59 CALM      30.00R
IDYLLWILD        N/A     43  31  63 CALM      29.99S

$$

SOUTHERN DESERT INCLUDING THE COACHELLA VALLEY

CITY           SKY/WX    TMP DP  RH WIND       PRES   REMARKS
PALM SPRINGS   MOCLDY    70  41  34 CALM      29.98S
THOUSAND PALMS   N/A     67  46  45 N5        29.91S
INDIO            N/A     72  44  36 NW2       29.95S
THERMAL        MOCLDY    69  44  40 W7        29.95S
BORREGO AP     CLOUDY    68  39  34 N12       29.98R
OCOTILLO WELLS   N/A     73  39  29 NW8       29.92R
CANEBRAKE        N/A     68  39  34 NW8       29.93R
BLYTHE         CLOUDY    73  36  25 S6        29.96R
EL CENTRO NAS    N/A     72  47  40 W9        29.97R
YUMA AZ        CLOUDY    70  41  34 CALM      29.96R

$$

UPPER DESERT

CITY           SKY/WX    TMP DP  RH WIND       PRES   REMARKS
VICTORVILLE AP PTCLDY    54  32  43 SE8       30.06R
HESPERIA         N/A     55  35  46 SW12      29.85R
PALMDALE       PTCLDY    54  36  50 W6        30.03R
LANCASTER      PTCLDY    55  42  61 VRB5      30.04R
EDWARDS AFB    PTCLDY    53  38  56 W7        30.00R
GRAY BUTTE AP  PTCLDY    49  32  50 SW6       30.01R
DAGGETT        PTCLDY    58  39  49 NW3       30.01R
29 PALMS N     MOCLDY    62  36  37 SW7       30.07F
29 PALMS JTNP    N/A     65  36  34 CALM      29.94R
NEEDLES        CLOUDY    68  36  30 SW8       29.98R

$$

REGIONAL REPORTS

CITY           SKY/WX    TMP DP  RH WIND       PRES   REMARKS
SANTA BARBARA  PTCLDY    56  53  90 N5        30.05R
SANDBERG       PTCLDY    48  39  71 S10       30.09R
LAS VEGAS NV   MOCLDY    61  34  36 S3        29.98F
PHOENIX AZ     CLOUDY    73  39  29 S3        29.97S
TIJUANA        CLOUDY    57  54  88 SW5       30.06R
ENSENADA NW      N/A     60  32  35 E10       29.83R

$$

OFFSHORE ISLANDS

CITY           SKY/WX    TMP DP  RH WIND       PRES   REMARKS
CATALINA ARPT  HAZE      51  45  79 W9        30.07R VSB 1/2
SAN CLEMENTE I CLOUDY   N/A N/A N/A W8        30.09R
SAN NICOLAS IS MOCLDY    51  49  92 W6        30.06R

$$

MARINE AND OFFSHORE BUOY REPORTS

STATION/POSITION SKY/WX   TEMP    WIND        PRES    VSBY  SWELL
                          AIR SEA DIR/SP/G                  HT/PER/DIR
                          (F)     (DEG/KT/KT) (MB)    (MI)  (FT/S/D)
TANNER BANKS               59 61  280/  6/  8 1017.8F         7/340/19
S CLEMENTE BASIN           58 60  310/  6/  8 1016.7F         3/260/12
SAN NICOLAS IS.               60                N/A           5/310/18
SO. S. ROSA ISLA           58 58  300/  6/  8 1016.6S
W. S. BARBARA CH           58 60  300/ 12/ 16 1016.7R
M. S. BARBARA CH           58 59  270/  8/ 10 1016.3R
S. MONICA BASIN            58 60  290/  6/  8 1018.0R
S PEDRO CHANNEL               60                N/A           2/280/12
OCEANSIDE OFFSHR              60                N/A           2/200/17
TORREY PINES OTR              61                N/A           2/250/13
SAN DIEGO BAY                 62              1017.0
IMPERIAL BEACH                60                N/A           2/260/13
POINT LOMA SOUTH                                N/A           3/260/13

$$



 

View Past Reports for San Diego, CA.

Products Courtesy of NOAA-NWS
NWS Information Parsing Script by Ken True at Saratoga Weather - Script by SE Lincoln Weather.